Tracking 19832 objects as of 25-Aug-2019
HD Live streaming from Space Station
objects crossing your sky now

FENGYUN 1C DEB

Track FENGYUN 1C DEB now!
10-day predictions


NORAD ID: 31349
Int'l Code: 1999-025BRD
Perigee: 849.7 km
Apogee: 958.3 km
Inclination: 99.2 °
Period: 102.9 minutes
Semi major axis: 7274 km
RCS: 0.0157 m2 (small)
Launch date: May 10, 1999
Source: People's Republic of China (PRC)
Launch site: Taiyaun Space Center, China (TSC)

Note: This is SATELLITE DEBRIS
aabbcc
Your satellite tracking list
Your tracking list is empty




NASA's NSSDC Master Catalog

Two Line Element Set (TLE):
1 31349U 99025BRD 19236.67123199  .00000082  00000-0  85283-4 0  9994
2 31349  99.2020 197.0655 0074617  73.7691 287.1665 13.99116117627341
Source of the keplerian elements: AFSPC